Location: Allie Creek
(37.5926°N, 89.8526°W)
Time: 11:43:56
(UTC+00:00)

NOSS 3-1 (C) - Pass Details

Date: 26 September 2023
Orbit: 670 x 1537 km, 63.4° (Epoch: 01 December)

Event Time Altitude Azimuth Distance (km) Brightness Sun altitude
Rises 10:10:05 0° 328° (NNW) 3,959 6.5 -20.5°
Reaches altitude 10° 10:12:36 10° 331° (NNW) 3,112 6.0 -20.0°
Maximum altitude 10:20:18 76° 56° (ENE) 1,397 4.4 -18.5°
Drops below altitude 10° 10:29:24 10° 143° (SE) 3,636 6.8 -16.8°
Sets 10:32:32 0° 144° (SE) 4,658 7.4 -16.2°
